Location: Woodhurst
(52.3667°N, 0.0667°W)
Time: 00:40:53
(UTC+00:00)

Cosmos 220 Rocket - Pass Details

Date: 19 May 2025
Orbit: 546 x 580 km, 74.0° (Epoch: 18 June)

Event Time Altitude Azimuth Distance (km) Brightness Sun altitude
Exits shadow 21:57:15 18° 179° (S) 1,394 5.3 -13.1°
Maximum altitude 22:00:03 50° 109° (ESE) 704 4.0 -13.3°
Drops below altitude 10° 22:03:59 10° 34° (NE) 1,832 6.9 -13.6°
Sets 22:06:13 0° 29° (NNE) 2,728 7.9 -13.8°
